Regional Weather Roundup
Issued by NWS

Home | Current Version | Previous Version | Graphics & Text | Print | Product List | Glossary On
Versions: 1 2 3 4 5 6 7 8 9 10 11 12 13 14 15 16 17 18 19 20 21 22 23 24 25 26 27 28 29 30 31 32 33 34 35 36 37 38 39 40 41 42 43 44 45 46 47 48 49 50
000
ASUS43 KDMX 110306
RWRIA

WEATHER ROUNDUP FOR IOWA
NATIONAL WEATHER SERVICE DES MOINES IA
900 PM CST SAT DEC 10 2016

NOTE: "FAIR" INDICATES FEW OR NO CLOUDS BELOW 12,000 FEET WITH NO
SIGNIFICANT WEATHER AND/OR OBSTRUCTIONS TO VISIBILITY.

* - THESE STATIONS ARE NOT NWS STATIONS...THUS NOT UNDER NWS
QUALITY CONTROL.  THEY ALSO DO NOT REPORT WEATHER SUCH
AS PRECIPITATION OR FOG.

IAZ001>003-012>014-020>022-031>034-043>046-110400-
   NORTHWEST IOWA

CITY           SKY/WX    TMP DP  RH WIND       PRES   REMARKS
CARROLL *      CLOUDY    23  21  93 SE13      30.03S FOG     WCI  11
CHEROKEE *     LGT SNOW  22  21  94 SE10      30.02F WCI  12
DENISON *      FLURRIES  25  21  86 SE12G18   29.96F WCI  14
LE MARS *      CLOUDY    23  19  86 E12       30.00F WCI  12
ORANGE CITY *  CLOUDY    21  19  93 SE6       29.99F WCI  14
SHELDON *      LGT SNOW  21  21 100 SE13      30.00F WCI   9
SIOUX CITY     CLOUDY    28  20  71 E15       29.97F WCI  16
SPENCER        LGT SNOW  21  18  88 SE8       30.03F FOG     WCI  11
STORM LAKE *   LGT SNOW  21  19  93 SE14      30.00F WCI   8
$$

IAZ055>058-069>071-079>083-090>094-110400-
   SOUTHWEST IOWA

CITY           SKY/WX    TMP DP  RH WIND       PRES   REMARKS
ATLANTIC *     CLOUDY    28  21  74 SE8G15    30.00F WCI  20
AUDUBON *      CLOUDY    27  21  80 SE8       30.00F WCI  18
CLARINDA *     CLOUDY    32  19  59 SE7G13    30.03R WCI  26
COUNCIL BLFS * MOCLDY    30  19  64 MISG      29.96F
CRESTON *      CLOUDY    28  19  69 SE12      30.03F WCI  18
HARLAN  *      CLOUDY    28  21  74 SE12G17   30.01F WCI  18
LAMONI         CLOUDY    31  17  56 SE10G18   30.03F WCI  22
RED OAK *      CLOUDY    30  19  64 SE12      29.99F WCI  21
SHENANDOAH *   CLOUDY    32  21  64 SE12      30.00F WCI  23
$$

IAZ047>049-059>061-072>074-084-110400-
   CENTRAL IOWA

CITY           SKY/WX    TMP DP  RH WIND       PRES   REMARKS
AMES           LGT SNOW  23  20  88 SE13      30.08F FOG     WCI  11
ANKENY *       CLOUDY    25  19  80 SE9       30.08F WCI  15
BOONE *        CLOUDY    23  19  86 SE16G22   30.05F FOG     WCI  10
CHARITON *     CLOUDY    28  19  69 SE10      30.06F WCI  19
DES MOINES     CLOUDY    26  18  71 SE12      30.07F WCI  16
GRINNELL*      LGT SNOW  23  20  88 SE15      30.10F WCI  10
KNOXVILLE *    CLOUDY    27  18  69 SE10      30.07F WCI  17
MARSHALLTOWN   LGT SNOW  22  19  89 SE14      30.11F FOG     WCI   9
NEWTON *       CLOUDY    23  19  86 SE13G21   30.08F WCI  11
PELLA *        CLOUDY    25  20  80 SE8       30.10F WCI  17
PERRY *        CLOUDY    25  22  89 E12       30.04F WCI  14
$$

IAZ004>006-015-016-023>025-035-036-110400-
   NORTH CENTRAL IOWA

CITY           SKY/WX    TMP DP  RH WIND       PRES   REMARKS
ALGONA *       MOCLDY    21  19  93 SE14      30.07S FOG     WCI   8
CLARION *      CLOUDY    21  19  93 SE17G23   30.07F FOG     WCI   7
ESTHERVILLE    LGT SNOW  19  18  95 SE15      30.06S FOG     WCI   5
FORT DODGE *   CLOUDY    21  18  86 SE10G16   30.07F WCI  10
MASON CITY     LGT SNOW  19  16  88 SE14      30.12F FOG     WCI   6
FOREST CITY *  LGT SNOW  21  19  93 SE13      30.09F WCI   9
WEBSTER CITY * CLOUDY    23  21  93 SE17      30.05F FOG     WCI   9
IOWA FALLS *   CLOUDY    23  20  89 SE14      30.11S WCI  10
$$

IAZ007>011-017>019-026>030-037>042-050>054-066-110400-
   NORTHEAST IOWA

CITY           SKY/WX    TMP DP  RH WIND       PRES   REMARKS
CEDAR RAPIDS   FLURRIES  22  20  92 SE15      30.14F WCI   9
CHARLES CITY * CLOUDY    19  18  93 SE14      30.14F WCI   6
CLINTON *      CLOUDY    23  20  88 SE16      30.22F WCI  10
DECORAH *      LGT SNOW  18  16  93 E7        30.16F WCI   8
DUBUQUE        CLOUDY    20  18  92 SE10      30.20F WCI   9
MONTICELLO *   CLOUDY    23  19  86 SE13G20   30.19F WCI  11
OELWEIN *      CLOUDY    21  19  93 SE17      30.15F WCI   7
WATERLOO       LGT SNOW  21  18  88 SE13      30.14F FOG     WCI   9
$$

IAZ064-065-067-068-078-110400-
   EAST CENTRAL IOWA

CITY           SKY/WX    TMP DP  RH WIND       PRES   REMARKS
DAVENPORT      CLOUDY    23  19  85 SE16      30.21F WCI  10
IOWA CITY      FLURRIES  24  19  81 SE12      30.19F WCI  13
MUSCATINE *    CLOUDY    25  19  80 SE9G15    30.20F WCI  15
QUAD CITIES    CLOUDY    24  19  81 E12       30.22F WCI  13
$$

IAZ062-063-075>077-085>089-095>099-110400-
   SOUTHEAST IOWA

CITY           SKY/WX    TMP DP  RH WIND       PRES   REMARKS
BURLINGTON     CLOUDY    28  20  71 SE9       30.18F WCI  19
FAIRFIELD *    CLOUDY    27  18  69 SE13      30.13F WCI  16
FORT MADISON * CLOUDY    28  19  69 SE10G16   30.17F WCI  19
KEOKUK *       CLOUDY    30  19  64 SE10      30.16F WCI  21
OSKALOOSA *    CLOUDY    26  19  77 SE10G16   30.11F WCI  16
CENTERVILLE *  CLOUDY    28  18  64 SE12      30.10F WCI  18
OTTUMWA        CLOUDY    28  17  63 SE14      30.11F WCI  17
WASHINGTON *   CLOUDY    25  21  86 SE12G17   30.17F WCI  14
$$

ABBREVIATIONS USED IN REMARKS
   TC - TEMPERATURES IN CELSIUS
  WCI - WIND CHILL INDEX
   HX - HEAT INDEX
  VSB - VISIBILITY
$$




USA.gov is the U.S. government's official web portal to all federal, state and local government web resources and services.